User: anonymous
Location: Caltech
(34.1382°N, 118.1253°W)
Time: 02:18:58
(UTC-07:00)
Language:

Hamsat - Orbit

View from above orbital plane
View from above orbital plane
View from above satellite
View from above satellite

Ground track
Ground track

The orbit data is extracted from the following two-line orbital elements,

1 28650U 05017B   14112.10750693  .00003830  00000-0  44943-3 0  7162
2 28650 097.5610 119.8841 0024532 347.0455 013.0128 14.85292257484902
Epoch (UTC): 22 April 2014 02:34:48
Eccentricity: 0.0024532
inclination: 97.5610°
perigee height: 595 km
apogee height: 630 km
right ascension of ascending node: 119.8841°
argument of perigee: 347.0455°
revolutions per day: 14.85292257
mean anomaly at epoch: 13.0128°
orbit number at epoch: 48490

The dashed part of the orbit path shows where the satellite is in the earth's shadow,  

DLR